Weather History for Monarch Pass, CO

Change the Weather History Date:

Wednesday, December 19, 2012

  Actual Average (KGUC) Record (KGUC)
Temperature  
Mean Temperature 3 °F -  
Max Temperature 15 °F 22 °F 39 °F (2006)
Min Temperature -9 °F 0 °F -16 °F (2000)
Degree Days  
Heating Degree Days 62    
Moisture  
Dew Point 1 °F    
Average Humidity 84    
Maximum Humidity 93    
Minimum Humidity 71    
Precipitation  
Precipitation 0.00 in - - ()
Sea Level Pressure  
Sea Level Pressure 29.70 in    
Wind  
Wind Speed - (North)    
Max Wind Speed -    
Max Gust Speed -    
Averages and records for this station are not official NWS values.
T = Trace of Precipitation, MM = Missing Value Source: NWS Daily Summary

Daily Weather History Graph

Daily Weather History Graph

Search for Another Location

Airport:

Trip Planner

Search our weather history database for the weather conditions in past years. The results will help you decide how hot, cold, wet, or windy it might be!

Date:

Astronomy

Dec. 19, 2012 Rise Set
Actual Time 7:18 AM MST 4:47 PM MST
Civil Twilight 6:48 AM MST 5:16 PM MST
Nautical Twilight 6:15 AM MST 5:50 PM MST
Astronomical Twilight 5:42 AM MST 6:22 PM MST
Moon 11:33 AM MST (12/19) No Moon Set
Length of Visible Light 10h 28m
Length of Day
9h 28m
Waxing Crescent, 45% of the Moon is Illuminated
Dec 19
Waxing Crescent
Dec 19
First Quarter
Dec 28
Full
Jan 4
Last Quarter
Jan 11
New

Hourly Weather History & Observations

Time (MST) Temp. Dew Point Humidity Pressure Visibility Wind Dir Wind Speed Gust Speed Precip Events Conditions
12:16 AM 14.0 °F 12.2 °F 93% 29.63 in - North - - N/A   Unknown
12:36 AM 14.0 °F 12.2 °F 93% 29.63 in - North - - N/A   Unknown
12:56 AM 14.0 °F 12.2 °F 93% 29.62 in - North - - N/A   Unknown
1:16 AM 15.8 °F 12.2 °F 86% 29.61 in - North - - N/A   Unknown
1:36 AM 15.8 °F 12.2 °F 86% 29.61 in - North - - N/A   Overcast
1:56 AM 14.0 °F 12.2 °F 93% 29.61 in - North - - N/A   Overcast
2:16 AM 14.0 °F 12.2 °F 93% 29.59 in - North - - N/A   Overcast
2:36 AM 15.8 °F 12.2 °F 86% 29.59 in - North - - N/A   Overcast
2:56 AM 14.0 °F 12.2 °F 93% 29.57 in - North - - N/A   Overcast
3:16 AM 14.0 °F 12.2 °F 93% 29.57 in - North - - N/A   Overcast
3:36 AM 14.0 °F 12.2 °F 93% 29.55 in - North - - N/A   Overcast
3:56 AM 14.0 °F 12.2 °F 93% 29.54 in - North - - N/A   Overcast
4:16 AM 15.8 °F 12.2 °F 86% 29.54 in - North - - N/A   Overcast
4:36 AM 15.8 °F 14.0 °F 93% 29.53 in - North - - N/A   Overcast
4:56 AM 15.8 °F 14.0 °F 93% 29.54 in - North - - N/A   Overcast
5:16 AM 14.0 °F 12.2 °F 93% 29.55 in - North - - N/A   Overcast
5:36 AM 15.8 °F 12.2 °F 86% 29.56 in - North - - N/A   Overcast
5:56 AM 14.0 °F 12.2 °F 93% 29.56 in - North - - N/A   Overcast
6:16 AM 14.0 °F 12.2 °F 93% 29.57 in - North - - N/A   Overcast
6:36 AM 14.0 °F 12.2 °F 93% 29.55 in - North - - N/A   Overcast
6:56 AM 14.0 °F 10.4 °F 86% 29.55 in - North - - N/A   Overcast
7:16 AM 12.2 °F 10.4 °F 92% 29.56 in - North - - N/A   Overcast
7:36 AM 12.2 °F 10.4 °F 92% 29.54 in - North - - N/A   Overcast
7:56 AM 12.2 °F 10.4 °F 92% 29.54 in - North - - N/A   Overcast
8:16 AM 12.2 °F 10.4 °F 92% 29.53 in - North - - N/A   Overcast
8:36 AM 12.2 °F 8.6 °F 85% 29.55 in - North - - N/A   Overcast
8:56 AM 12.2 °F 8.6 °F 85% 29.55 in - North - - N/A   Overcast
9:16 AM 12.2 °F 8.6 °F 85% 29.56 in - North - - N/A   Overcast
9:36 AM 12.2 °F 8.6 °F 85% 29.56 in - North - - N/A   Overcast
9:56 AM 12.2 °F 8.6 °F 85% 29.56 in - North - - N/A   Overcast
10:16 AM 12.2 °F 8.6 °F 85% 29.55 in - North - - N/A   Overcast
10:36 AM 12.2 °F 8.6 °F 85% 29.56 in - North - - N/A   Overcast
10:56 AM 8.6 °F 3.2 °F 79% 29.56 in - North - - N/A   Overcast
11:16 AM 3.2 °F -2.2 °F 78% 29.57 in - North - - N/A   Overcast
11:36 AM 1.4 °F -4.0 °F 78% 29.58 in - North - - N/A   Overcast
11:56 AM 1.4 °F -4.0 °F 78% 29.59 in - North - - N/A   Overcast
12:16 PM 1.4 °F -4.0 °F 78% 29.61 in - North - - N/A   Overcast
12:36 PM 1.4 °F -4.0 °F 78% 29.62 in - North - - N/A   Overcast
12:56 PM -0.4 °F -4.0 °F 85% 29.63 in - North - - N/A   Overcast
1:16 PM 1.4 °F -4.0 °F 78% 29.65 in - North - - N/A   Overcast
1:36 PM 1.4 °F -4.0 °F 78% 29.66 in - North - - N/A   Overcast
1:56 PM 1.4 °F -4.0 °F 78% 29.68 in - North - - N/A   Overcast
2:16 PM 1.4 °F -2.2 °F 85% 29.70 in - North - - N/A   Overcast
2:36 PM 1.4 °F -2.2 °F 85% 29.73 in - North - - N/A   Overcast
2:56 PM 1.4 °F -2.2 °F 85% 29.74 in - North - - N/A   Overcast
3:16 PM 1.4 °F -4.0 °F 78% 29.76 in - North - - N/A   Overcast
3:36 PM 1.4 °F -4.0 °F 78% 29.76 in - North - - N/A   Unknown
3:56 PM 1.4 °F -4.0 °F 78% 29.78 in - North - - N/A   Overcast
4:16 PM -0.4 °F -5.8 °F 78% 29.79 in - North - - N/A   Overcast
4:36 PM -2.2 °F -7.6 °F 78% 29.82 in - North - - N/A   Overcast
4:56 PM -4.0 °F -7.6 °F 85% 29.83 in - North - - N/A   Unknown
5:16 PM -4.0 °F -7.6 °F 85% 29.84 in - North - - N/A   Mostly Cloudy
5:36 PM -4.0 °F -7.6 °F 85% 29.85 in - North - - N/A   Mostly Cloudy
5:56 PM -4.0 °F -9.4 °F 78% 29.86 in - North - - N/A   Scattered Clouds
6:16 PM -4.0 °F -7.6 °F 85% 29.87 in - North - - N/A   Mostly Cloudy
6:36 PM -4.0 °F -7.6 °F 85% 29.89 in - North - - N/A   Overcast
6:56 PM -5.8 °F -9.4 °F 84% 29.89 in - North - - N/A   Overcast
7:16 PM -5.8 °F -9.4 °F 84% 29.91 in - North - - N/A   Overcast
7:36 PM -5.8 °F -13.0 °F 71% 29.92 in - North - - N/A   Overcast
7:56 PM -7.6 °F -13.0 °F 77% 29.93 in - North - - N/A   Overcast
8:16 PM -7.6 °F -13.0 °F 77% 29.95 in - North - - N/A   Scattered Clouds
8:36 PM -7.6 °F -13.0 °F 77% 29.93 in - North - - N/A   Clear
8:56 PM -7.6 °F -13.0 °F 77% 29.93 in - North - - N/A   Clear
9:16 PM -7.6 °F -14.8 °F 71% 29.94 in - North - - N/A   Clear
9:36 PM -9.4 °F -14.8 °F 77% 29.95 in - North - - N/A   Clear
9:56 PM -9.4 °F -14.8 °F 77% 29.97 in - North - - N/A   Clear
10:16 PM -9.4 °F -14.8 °F 77% 29.97 in - North - - N/A   Clear
10:36 PM -9.4 °F -14.8 °F 77% 30.00 in - North - - N/A   Clear
10:56 PM -9.4 °F -14.8 °F 77% 30.03 in - North - - N/A   Clear
11:16 PM -9.4 °F -14.8 °F 77% 30.04 in - North - - N/A   Clear
11:56 PM -9.4 °F -14.8 °F 77% 30.07 in - North - - N/A   Clear